RH
24 23 22 21 20 19 18 19 19 19 19 20 20 20 20 19 19 19 20 22 23 22 22 23 23 23 27 33 36 37 38 38 37 39 41 42 42 41 40 39 38 37
23 22 22 22 21 20 19 18 19 18 18 18 18 18 18 19 19 19 20 22 23 22 23 23 23 22 23 27 32 35 36 37 36 37 40 42 43 43 41 40 39 38
23 22 22 22 21 20 19 18 19 18 17 17 17 17 16 16 17 18 19 21 22 23 23 23 23 23 22 23 27 30 32 34 34 35 37 39 42 43 42 41 40 40
23 21 21 21 20 20 19 19 19 18 18 17 16 15 15 15 15 16 18 20 20 21 21 21 23 23 22 21 22 25 28 30 32 34 35 35 38 41 42 42 42 41
22 21 20 20 20 20 20 19 18 18 18 17 16 15 15 14 14 16 17 17 18 18 18 19 21 23 23 21 19 20 23 27 30 32 33 33 35 37 39 41 42 41
23 22 21 20 19 20 20 18 17 17 17 17 16 15 14 14 14 15 16 15 15 16 16 17 19 21 22 21 19 18 20 24 27 30 31 31 32 33 35 38 39 40
24 23 22 21 21 21 20 18 17 16 16 16 16 15 14 13 14 14 15 14 14 14 15 16 17 19 20 20 20 19 19 22 25 28 30 30 30 31 32 34 37 38
24 23 22 22 21 21 20 19 18 16 16 16 15 14 13 13 13 14 14 14 14 14 15 16 16 17 18 19 19 19 20 21 23 25 27 28 29 29 30 31 33 35
25 23 22 22 21 20 19 18 18 17 17 16 15 14 13 13 13 13 14 14 14 14 14 15 16 17 17 18 19 19 19 20 21 22 24 24 26 28 29 30 31 32
25 23 22 21 21 19 18 17 17 18 17 17 16 14 14 13 13 13 13 14 14 14 14 15 16 17 18 19 19 20 20 19 20 20 21 21 22 23 25 28 29 31
24 23 22 21 20 20 18 18 17 18 17 17 16 15 14 13 13 14 15 16 15 15 15 16 17 18 19 19 19 19 20 20 20 19 19 19 20 20 21 23 26 28
23 22 21 20 20 20 20 19 18 17 17 17 17 16 15 14 15 16 17 17 17 17 17 18 19 19 19 19 19 18 19 19 20 20 20 20 20 20 20 21 22 24
22 22 21 20 21 21 21 20 19 18 17 17 17 17 16 16 16 17 18 17 17 18 19 19 20 19 18 18 17 17 17 18 19 20 20 21 21 20 21 21 21 22
22 22 22 21 21 22 22 22 21 19 18 18 18 18 18 17 18 18 18 17 18 19 20 20 19 18 16 16 16 16 16 17 18 19 20 20 21 21 21 21 21 21
22 22 22 23 22 23 23 23 22 21 21 21 21 20 20 19 20 19 18 18 19 21 21 19 17 15 15 15 15 15 16 16 17 19 19 20 21 21 22 22 21 21
21 22 22 23 23 23 23 23 23 24 25 25 25 23 21 21 21 20 19 19 21 21 21 18 17 15 15 15 15 15 15 15 16 17 18 19 20 21 21 21 21 20
21 21 21 22 22 23 23 25 27 27 28 29 28 26 24 23 22 21 20 21 23 22 21 18 17 16 16 16 16 16 16 16 16 16 18 19 20 21 21 22 23 24
27 25 24 24 25 26 28 29 30 31 31 32 31 29 27 25 24 22 22 23 25 24 21 19 19 18 18 19 19 19 19 20 20 21 22 22 22 23 24 26 28 30
36 35 34 34 33 33 33 32 32 33 33 34 33 32 31 29 27 24 24 25 26 24 23 23 23 22 22 23 23 24 24 26 28 30 30 30 30 31 33 34 35 36
41 41 42 43 43 41 40 39 38 38 37 36 36 35 34 33 30 27 26 26 26 26 27 26 25 25 26 26 26 27 28 32 35 38 39 41 42 44 45 46 47 48
43 44 45 47 48 48 48 47 46 45 43 41 39 38 36 35 32 29 27 27 28 30 30 28 26 26 27 28 28 30 33 37 40 42 45 46 48 49 51 52 53 54
46 47 47 48 49 49 50 50 49 49 47 46 43 39 39 37 34 31 29 28 30 33 32 29 27 27 28 29 31 33 37 40 43 45 46 47 49 50 51 52 53 54
45 46 46 48 48 49 49 49 50 49 49 50 47 44 41 38 35 32 30 30 32 33 31 29 27 27 29 31 34 37 40 42 44 45 46 47 48 49 50 52 54 54
42 42 43 45 46 48 48 48 48 48 48 48 49 48 44 39 36 34 32 32 33 32 32 30 29 29 31 34 37 40 42 43 45 45 45 45 47 48 49 51 53 54
41 41 42 43 43 44 44 45 45 45 45 46 47 49 49 45 40 37 36 35 35 35 35 34 32 32 34 37 39 42 43 44 45 45 45 46 48 49 50 51 52 53
40 41 43 43 44 43 42 42 43 43 43 43 43 46 51 51 47 42 39 38 38 39 40 39 38 37 38 39 41 43 44 44 45 44 45 48 50 51 51 52 53 54